Location: LDNL
(36.4545°S, 141.6685°E)
Time: 07:31:06
(UTC+11:00)

S-56A Canister/Altair - All Passes

Search period start: 26 January 2022 00:00
Search period end: 05 February 2022 00:00
Orbit: 634 x 2499 km, 38.9° (Epoch: 25 January)

Date Brightness Start Highest point End Pass type
(mag) Time Alt. Az. Time Alt. Az. Time Alt. Az.
26 Jan - 00:34:01 10° WSW 00:47:41 86° SSE 00:56:50 10° ENE visible
26 Jan - 02:41:55 10° WSW 02:52:39 51° NW 02:59:46 10° NE visible
26 Jan - 04:53:10 10° WNW 04:55:04 11° NW 04:56:51 10° NW night (unlit)
26 Jan - 17:43:51 10° N 17:55:02 28° NE 18:06:36 10° E daylight
26 Jan - 19:45:45 10° NW 20:00:28 64° NNE 20:14:05 10° ESE daylight
26 Jan - 21:52:01 10° WNW 22:07:23 85° SSW 22:19:29 10° ESE visible
27 Jan - 00:00:09 10° W 00:14:25 84° S 00:24:14 10° E visible
27 Jan - 02:08:08 10° WSW 02:19:49 58° NNW 02:27:31 10° NE visible
27 Jan - 04:17:48 10° W 04:22:36 15° NW 04:26:36 10° NNW visible
27 Jan - 17:11:38 10° N 17:21:49 24° NE 17:32:37 10° E daylight
27 Jan - 19:12:38 10° NW 19:26:56 60° NNE 19:40:52 10° ESE daylight
27 Jan - 21:18:22 10° WNW 21:33:47 88° SSW 21:46:33 10° ESE visible
27 Jan - 23:26:18 10° W 23:41:02 82° S 23:51:32 10° E visible
28 Jan - 01:34:19 10° WSW 01:46:54 65° NNW 01:55:13 10° NE visible
28 Jan - 03:43:21 10° W 03:50:05 20° NW 03:55:21 10° N visible
28 Jan - 16:39:42 10° N 16:48:40 21° NE 16:58:22 10° E daylight
28 Jan - 18:39:38 10° NW 18:53:26 55° NE 19:07:31 10° ESE daylight
28 Jan - 20:44:47 10° WNW 21:00:09 90° NNE 21:13:32 10° ESE visible
28 Jan - 22:52:28 10° W 23:07:34 81° S 23:18:46 10° E visible
29 Jan - 01:00:30 10° WSW 01:13:51 72° NNW 01:22:48 10° NE visible
29 Jan - 03:09:09 10° W 03:17:30 25° NW 03:23:44 10° N visible
29 Jan - 16:08:08 10° NNE 16:15:37 17° NE 16:23:43 10° E daylight
29 Jan - 18:06:47 10° NNW 18:19:58 51° NE 18:34:03 10° ESE daylight
29 Jan - 20:11:20 10° WNW 20:26:29 87° NNE 20:40:25 10° ESE daylight
29 Jan - 22:18:42 10° W 22:34:02 81° S 22:45:56 10° E visible
30 Jan - 00:26:40 10° WSW 00:40:42 77° NNW 00:50:19 10° ENE visible
30 Jan - 02:35:04 10° WSW 02:44:50 31° NW 02:51:54 10° NNE visible
30 Jan - 15:37:13 10° NNE 15:42:37 13° NE 15:48:25 10° E daylight
30 Jan - 17:34:05 10° NNW 17:46:35 46° NE 18:00:29 10° ESE daylight
30 Jan - 19:38:00 10° WNW 19:52:49 83° NNE 20:07:13 10° ESE daylight
30 Jan - 21:44:58 10° W 22:00:25 81° S 22:13:00 10° E visible
30 Jan - 23:52:51 10° WSW 00:07:26 82° NNW 00:17:44 10° ENE visible
31 Jan - 02:01:04 10° WSW 02:12:05 37° NW 02:19:54 10° NNE visible
31 Jan - 17:01:31 10° NNW 17:13:16 41° NE 17:26:47 10° ESE daylight
31 Jan - 19:04:47 10° WNW 19:19:10 79° NNE 19:33:56 10° ESE daylight
31 Jan - 21:11:19 10° W 21:26:45 81° S 21:39:58 10° E visible
31 Jan - 23:19:04 10° WSW 23:34:04 86° NNW 23:45:04 10° ENE visible
01 Feb - 01:27:06 10° WSW 01:39:13 43° NW 01:47:46 10° NNE visible
01 Feb - 16:29:07 10° NNW 16:40:03 36° NE 16:52:58 10° ESE daylight
01 Feb - 18:31:41 10° NW 18:45:33 75° NNE 19:00:33 10° ESE daylight
01 Feb - 20:37:46 10° W 20:53:02 82° S 21:06:51 10° E daylight
01 Feb - 22:45:18 10° WSW 23:00:36 89° NNW 23:12:18 10° ENE visible
02 Feb - 00:53:11 10° WSW 01:06:14 50° NW 01:15:32 10° NNE visible
02 Feb - 03:04:56 10° W 03:09:06 13° WNW 03:12:47 10° NW visible
02 Feb - 15:56:52 10° N 16:06:55 31° NE 16:18:59 10° ESE daylight
02 Feb - 17:58:43 10° NW 18:11:59 71° NNE 18:27:04 10° ESE daylight
02 Feb - 20:04:18 10° W 20:19:17 83° S 20:33:39 10° E daylight
02 Feb - 22:11:36 10° WSW 22:27:03 88° SSE 22:39:26 10° ENE visible
03 Feb - 00:19:19 10° WSW 00:33:09 56° NW 00:43:09 10° NE visible
03 Feb - 02:29:39 10° W 02:36:27 17° NW 02:42:05 10° NNW visible
03 Feb - 15:24:50 10° N 15:33:53 27° NE 15:44:50 10° E daylight
03 Feb - 17:25:52 10° NW 17:38:29 66° NNE 17:53:31 10° ESE daylight
03 Feb - 19:30:57 10° W 19:45:32 85° S 20:00:21 10° E daylight
03 Feb - 21:37:58 10° W 21:53:26 86° SSE 22:06:28 10° ENE visible
03 Feb - 23:45:30 10° WSW 23:59:57 62° NNW 00:10:41 10° NE visible
04 Feb - 01:54:59 10° W 02:03:43 22° NW 02:10:43 10° N visible
04 Feb - 14:53:01 10° N 15:00:56 22° NE 15:10:28 10° E daylight
04 Feb - 16:53:08 10° NW 17:05:04 60° NE 17:19:52 10° ESE daylight
04 Feb - 18:57:43 10° WNW 19:11:49 87° SSW 19:26:57 10° ESE daylight
04 Feb - 21:04:24 10° W 21:19:44 84° S 21:33:24 10° E visible
04 Feb - 23:11:44 10° WSW 23:26:38 67° NNW 23:38:05 10° NE visible
